This demonstration page uses our WeatherBlox Daily Observations layout. Learn more.

Left ArrowRight Arrow

39.08367, -84.50855

Hourly Observations for December 25, 2020

Temp ( °F °C ) Dew Point ( °F °C ) Humidity (%) Winds ( mph kmh ) Pressure ( in mb ) Visibility ( mi km ) Precip ( " mm )
12:53 am 00:53 Cloudy 19 -7.2 9 -12.8 65 65 NNW 7 11 29.91 1013 10 16.0934 0.001 0.001
1:53 am 01:53 Cloudy with Light Snow 19 -7.2 11 -11.7 71 71 NW 10 17 29.89 1012 4 6.43736 0.001 0.001
1:57 am 01:57 Cloudy with Light Snow 18 -7.8 12 -11.1 77 77 NW 8 13 29.92 1013 1.5 2.41401 0.001 0.001
2:07 am 02:07 Cloudy with Light Snow 18 -7.8 12 -11.1 77 77 WNW 6 9 29.92 1013 3 4.82802 0.001 0.001
2:53 am 02:53 Cloudy 19 -7.2 11 -11.7 71 71 W 12 19 29.89 1012 10 16.0934 0.001 0.001
3:04 am 03:04 Cloudy with Light Snow 18 -7.8 12 -11.1 77 77 NNW 10 17 29.91 1013 2.5 4.02335 0.001 0.001
3:27 am 03:27 Cloudy with Light Snow 17 -8.3 11 -11.7 77 77 NW 8 13 29.92 1013 5 8.0467 0.001 0.001
3:50 am 03:50 Cloudy 18 -8 10 -12 73 73 WNW 6 9 29.91 1013 9 14.48406 0.001 0.001
3:53 am 03:53 Cloudy 18 -7.8 10 -12.2 71 71 WNW 6 9 29.88 1012 9 14.48406 0.001 0.001
4:53 am 04:53 Cloudy 18 -7.8 9 -12.8 68 68 W 9 15 29.88 1012 10 16.0934 0 0
5:53 am 05:53 Cloudy 18 -7.8 9 -12.8 68 68 VRB 7 11 29.89 1012 10 16.0934 0 0
6:53 am 06:53 Cloudy 17 -8.3 7 -13.9 64 64 W 12 19 29.91 1013 10 16.0934 0 0
7:53 am 07:53 Cloudy 15 -9.4 5 -15 64 64 W 12 19 29.94 1014 10 16.0934 0 0
8:53 am 08:53 Cloudy 14 -10 5 -15 67 67 W 16 26 29.98 1015 10 16.0934 0 0
9:53 am 09:53 Cloudy with Light Snow 15 -9.4 6 -14.4 67 67 W 15 24 30 1016 5 8.0467 0.001 0.001
10:53 am 10:53 Cloudy 16 -8.9 8 -13.3 71 71 WSW 15 24 30.01 1016 7 11.26538 0.001 0.001
11:53 am 11:53 Cloudy 17 -8.3 8 -13.3 68 68 W 12 19 30 1016 9 14.48406 0.001 0.001
12:53 pm 12:53 Cloudy with Light Snow 17 -8.3 9 -12.8 70 70 WSW 14 22 30.01 1016 4 6.43736 0.001 0.001
12:58 pm 12:58 Cloudy with Light Snow 17 -8.3 8 -13.3 68 68 W 12 19 30.05 1017 2.5 4.02335 0.001 0.001
1:13 pm 13:13 Cloudy with Light Snow 17 -8.3 9 -12.8 70 70 WSW 14 22 30.05 1017 5 8.0467 0.001 0.001
1:21 pm 13:21 Cloudy with Light Snow 17 -8.3 8 -13.3 68 68 WSW 12 19 30.05 1017 5 8.0467 0.001 0.001
1:53 pm 13:53 Cloudy with Haze 18 -7.8 7 -13.9 62 62 W 14 22 30.04 1017 5 8.0467 0.001 0.001
2:53 pm 14:53 Cloudy with Light Snow 18 -7.8 9 -12.8 68 68 WSW 14 22 30.04 1017 6 9.65604 0.001 0.001
3:53 pm 15:53 Cloudy 18 -7.8 8 -13.3 65 65 WSW 15 24 30.06 1018 10 16.0934 0.001 0.001
4:53 pm 16:53 Cloudy 19 -7.2 7 -13.9 59 59 WSW 15 24 30.07 1018 10 16.0934 0 0
5:53 pm 17:53 Cloudy 18 -7.8 7 -13.9 62 62 WSW 17 28 30.1 1019 10 16.0934 0 0
6:53 pm 18:53 Mostly Clear 16 -8.9 5 -15 62 62 WSW 15 24 30.12 1020 10 16.0934 0 0
7:53 pm 19:53 Clear 15 -9.4 5 -15 64 64 WSW 15 24 30.12 1020 10 16.0934 0 0
8:53 pm 20:53 Partly Cloudy 14 -10 5 -15 67 67 WSW 16 26 30.14 1021 10 16.0934 0 0
9:53 pm 21:53 Mostly Cloudy 14 -10 5 -15 67 67 SW 12 19 30.14 1021 10 16.0934 0 0
10:53 pm 22:53 Mostly Cloudy 14 -10 5 -15 67 67 SW 9 15 30.14 1021 10 16.0934 0 0
11:00 pm 23:00 Clear 14 -10 6 -14.4 71 71 WSW 10 17 30.17 1022 10 16.0934 0 0
11:53 pm 23:53 Clear 15 -9.4 6 -14.4 67 67 SW 13 20 30.14 1021 10 16.0934 0 0

Powered by AerisWeather